Touristville, Kentucky
Current Conditions -  °F | °C
As of 11:56 PM on Saturday 20 Dec 2014 (Local Time) from KEKQ Reporting Station
Haze Haze  
Wind Chill: 20°   Ceiling: Unl
Heat Index: 20°   Visibility: 5mi
Dew Point: 18°   Wind: 0mph
Humidity: 92%   Direction: NA
Pressure: 30.3"   Gusts: NA
Location:  36.8129°N, 84.8215°W
Report Text: KEKQ 210456Z AUTO 00000KT 5SM BR CLR M07/M08 A3030 RMK AO2 T10661077 400551066 SLP272
Loading
Personal Weather Stations






























Interactive Weather Map New forecast layout! Learn more

10-Day Weather Forecast

Advertisements
Track Severe Weather on mobile